Regional Weather Roundup
Issued by NWS

Home | Current Version | Previous Version | Text Only | Print | Product List | Glossary Off
Versions: 1 2 3 4 5 6 7 8 9 10 11 12 13 14 15 16 17 18 19 20 21 22 23 24 25 26 27 28 29 30 31 32 33 34 35 36 37 38 39 40 41 42 43 44 45 46 47 48 49 50

000
ASUS44 KMEG 230010
RWRTN
TENNESSEE HOURLY STATE WEATHER ROUNDUP
NATIONAL WEATHER SERVICE MEMPHIS TN
700 PM CDT WED MAR 22 2017

TNZ002-004-019-021-049-052-054-088>092-230100-
WEST TENNESSEE

CITY           SKY/WX    TMP DP  RH WIND       PRES   REMARKS
MEMPHIS INTL   MOCLDY    62  31  31 NE13      30.26S
NWS MEMPHIS      N/A     59 N/A N/A MISG        N/A
JACKSON        CLEAR     57  31  37 NE6       30.29R
DYERSBURG      CLEAR     56  30  37 NE10      30.31S
SOMERVILLE     CLEAR     59  32  36 N7        30.25S
BOLIVAR        CLEAR     59  27  29 N7        30.26S
PARIS          CLEAR     52  25  35 NE8       30.32R
HUNTINGDON     CLEAR     55  25  30 NE7       30.30S
SAVANNAH       CLEAR     59  28  31 N7G14     30.27R
$$

TNZ008-025-027-028-033-062-065-066-230100-
NORTH MIDDLE TENNESSEE

CITY           SKY/WX    TMP DP  RH WIND       PRES   REMARKS
NASHVILLE      MOCLDY    52  19  27 N12       30.33R
PORTLAND       CLEAR     48  18  29 NE9       30.34R
CLARKSVILLE    CLEAR     50  19  29 E9        30.33R
SMYRNA         PTCLDY    53  20  27 N10       30.33R
COOKEVILLE     CLEAR     50  18  27 N8        30.29R
GALLATIN       CLEAR     50  19  29 N8        30.36R
CROSSVILLE     CLEAR     49  17  28 NE9       30.28R
$$

TNZ061-075-076-078-094-096-097-230100-
SOUTH MIDDLE TENNESSEE

CITY           SKY/WX    TMP DP  RH WIND       PRES   REMARKS
FAYETTEVILLE   CLEAR     55  28  35 N7        30.26R
TULLAHOMA      CLEAR     54  12  19 NE6       30.28R
WINCHESTER     CLEAR     52  21  30 N8        30.27R
MCMINNVILLE    CLEAR     52  18  25 N10       30.29R
COLUMBIA       CLEAR     55  21  26 NE6       30.29R
SHELBYVILLE    CLEAR     54  25  32 N6        30.30R
$$

TNZ017-018-042-046-047-230100-
NORTHEAST TENNESSEE

CITY           SKY/WX    TMP DP  RH WIND       PRES   REMARKS
TRI CITIES     PTCLDY    47  15  27 N8        30.31R
$$

TNZ012-013-036-069-073-074-230100-
CENTRAL EAST TENNESSEE

CITY           SKY/WX    TMP DP  RH WIND       PRES   REMARKS
KNOXVILLE      MOCLDY    54  20  26 N8        30.26R
OAK RIDGE      CLEAR     54  17  23 N5        30.29R
DOWNTOWN KNOXV CLEAR     54  27  35 CALM      30.28R
GATLINBURG     CLEAR     52  25  35 NE3       30.27R
MORRISTOWN     CLEAR     52  18  25 NE6       30.27R
JACKSBORO      CLEAR     50  14  23 VRB5G13   30.32S
$$

TNZ083-085-099-230100-
SOUTHEAST TENNESSEE

CITY           SKY/WX    TMP DP  RH WIND       PRES   REMARKS
CHATTANOOGA    MOCLDY    59  21  23 NE10      30.24R
$$

SKY/WX REPORTED AS FAIR MEANS FEW OR NO CLOUDS BELOW
12 THOUSAND FEET.





USA.gov is the U.S. government's official web portal to all federal, state and local government web resources and services.